User: anonymous   Login
Location: Unspecified
(0.0000°N, 0.0000°E)
Time: 03:10:42
(UTC+00:00)
Language:

USA 247 - Orbit

View from above orbital plane
View from above orbital plane
View from above satellite
View from above satellite

Ground track
Ground track

The orbit data is extracted from the following two-line orbital elements,

1 39462U 13072A   16271.11362828 0.00000000  00000-0  00000-0 0    08
2 39462 122.9997 168.9699 0004000 102.8443 257.1557 13.41425508    04
Epoch (UTC): 27 September 2016 02:43:37
Eccentricity: 0.0004000
inclination: 122.9997°
perigee height: 1101 km
apogee height: 1107 km
right ascension of ascending node: 168.9699°
argument of perigee: 102.8443°
revolutions per day: 13.41425508
mean anomaly at epoch: 257.1557°
orbit number at epoch: 0

The dashed part of the orbit path shows where the satellite is in the earth's shadow,  

DLR